Location: Newark
(53.0000°N, 1.0000°W)
Time: 23:15:21
(UTC+00:00)

CUTE-I - Visible Passes

Search period start: 23 January 2020 00:00
Search period end: 02 February 2020 00:00
Orbit: 810 x 825 km, 98.7° (Epoch: 23 January)

Date Brightness Start Highest point End Pass type
(mag) Time Alt. Az. Time Alt. Az. Time Alt. Az.
23 Jan ? 06:17:42 10° NNE 06:22:56 53° E 06:28:07 10° S visible
23 Jan ? 17:45:53 10° S 17:51:07 56° W 17:56:23 10° NNW visible
24 Jan ? 05:56:26 10° NNE 06:01:22 37° E 06:06:15 10° SSE visible
24 Jan ? 17:24:18 10° SSE 17:29:38 80° WSW 17:35:00 10° NNW visible
24 Jan ? 19:07:35 10° WSW 19:10:33 15° W 19:13:31 10° NW visible
25 Jan ? 05:35:19 10° NE 05:39:44 26° E 05:44:08 10° SSE visible
25 Jan ? 07:14:56 10° N 07:20:10 60° WNW 07:25:23 10° SSW visible
25 Jan ? 17:02:54 10° SSE 17:08:13 73° ENE 17:13:32 10° NNW visible
25 Jan ? 18:44:46 10° SW 18:48:48 22° W 18:52:51 10° NW visible
26 Jan ? 05:14:26 10° NE 05:18:02 18° E 05:21:37 10° SE visible
26 Jan ? 06:53:26 10° NNE 06:58:47 85° WNW 07:04:06 10° SSW visible
26 Jan ? 18:22:28 10° SSW 18:27:08 31° W 18:31:51 10° NNW visible
27 Jan ? 04:54:09 10° ENE 04:56:15 12° E 04:58:22 10° ESE visible
27 Jan ? 06:32:00 10° NNE 06:37:20 68° ESE 06:42:37 10° S visible
27 Jan ? 18:00:28 10° S 18:05:32 44° W 18:10:38 10° NNW visible
28 Jan ? 06:10:40 10° NNE 06:15:48 47° E 06:20:55 10° S visible
28 Jan ? 17:38:44 10° S 17:44:00 63° WSW 17:49:19 10° NNW visible
28 Jan ? 19:23:32 10° W 19:25:09 11° W 19:26:45 10° WNW visible
29 Jan ? 05:49:26 10° NNE 05:54:14 33° E 05:58:59 10° SSE visible
29 Jan ? 17:17:12 10° SSE 17:22:33 89° WSW 17:27:54 10° NNW visible
29 Jan ? 18:59:58 10° SW 19:03:21 17° W 19:06:45 10° NW visible
30 Jan ? 05:28:22 10° NE 05:32:35 23° E 05:36:45 10° SE visible
30 Jan ? 07:07:49 10° NNE 07:13:07 68° WNW 07:18:23 10° SSW visible
30 Jan ? 18:37:22 10° SW 18:41:39 24° W 18:45:56 10° NW visible
31 Jan ? 05:07:37 10° NE 05:10:50 16° E 05:14:04 10° ESE visible
31 Jan ? 06:46:20 10° NNE 06:51:42 86° ESE 06:57:02 10° SSW visible
31 Jan ? 18:15:10 10° SSW 18:20:00 34° W 18:24:51 10° NNW visible
01 Feb ? 04:47:54 10° ENE 04:49:03 11° E 04:50:11 10° E visible
01 Feb ? 06:24:57 10° NNE 06:30:13 60° ESE 06:35:29 10° S visible
01 Feb ? 17:53:17 10° S 17:58:25 49° W 18:03:36 10° NNW visible
